カタログに戻る

CZ-6A DEB

運用中PO
NORAD 61264·DEBRIS·🇨🇳 China

打ち上げ Aug 6, 2024 から Taiyuan Satellite Launch Center

Loading…

次のパス (今後24時間)

TLE

最新Source: Space-Track

元期: Sep 14, 2026, 11:18 UTC

1 61264U 24140RZ  26257.47114448  .00001543  00000-0  64264-3 0  9993
2 61264  89.0033 264.7401 0038927 225.6250 134.1753 14.25482211106527

AllMySatでCZ-6A DEBをリアルタイム追跡

Download on the App Store